Time,TemperatureF,DewpointF,PressureIn,WindDirection,WindDirectionDegrees,WindSpeedMPH,WindSpeedGustMPH,Humidity,HourlyPrecipIn,Conditions,Clouds,dailyrainin,SolarRadiationWatts/m^2,SoftwareType,DateUTC
2013-02-12 00:11:00,52.0,1.0,-100.00,West,269,5.0,8.0,12,0.00,,,0.00,0.000000,,2013-02-12 08:11:00,
2013-02-12 00:21:00,52.0,1.0,-100.00,West,269,5.0,8.0,12,0.00,,,0.00,0.000000,,2013-02-12 08:21:00,
2013-02-12 00:31:00,52.0,1.0,-100.00,West,269,5.0,8.0,12,0.00,,,0.00,0.000000,,2013-02-12 08:31:00,
2013-02-12 01:11:00,53.0,4.0,-100.00,WSW,256,7.0,9.0,13,0.00,,,0.00,0.000000,,2013-02-12 09:11:00,
2013-02-12 01:21:00,53.0,4.0,-100.00,WSW,256,7.0,9.0,13,0.00,,,0.00,0.000000,,2013-02-12 09:21:00,
2013-02-12 01:31:00,53.0,4.0,-100.00,WSW,256,7.0,9.0,13,0.00,,,0.00,0.000000,,2013-02-12 09:31:00,
2013-02-12 01:41:00,53.0,4.0,-100.00,WSW,256,7.0,9.0,13,0.00,,,0.00,0.000000,,2013-02-12 09:41:00,
2013-02-12 01:51:00,53.0,4.0,-100.00,WSW,256,7.0,9.0,13,0.00,,,0.00,0.000000,,2013-02-12 09:51:00,
2013-02-12 02:11:00,46.0,7.0,-100.00,WNW,298,0.0,8.0,20,0.00,,,0.00,0.000000,,2013-02-12 10:11:00,
2013-02-12 02:21:00,46.0,7.0,-100.00,WNW,298,0.0,8.0,20,0.00,,,0.00,0.000000,,2013-02-12 10:21:00,
2013-02-12 02:31:00,46.0,7.0,-100.00,WNW,298,0.0,8.0,20,0.00,,,0.00,0.000000,,2013-02-12 10:31:00,
2013-02-12 02:43:00,46.0,7.0,-100.00,WNW,298,0.0,8.0,20,0.00,,,0.00,0.000000,,2013-02-12 10:43:00,
2013-02-12 02:51:00,46.0,7.0,-100.00,WNW,298,0.0,8.0,20,0.00,,,0.00,0.000000,,2013-02-12 10:51:00,
2013-02-12 02:52:00,46.0,11.0,-100.00,South,178,2.0,6.0,24,0.00,,,0.00,0.000000,,2013-02-12 10:52:00,
2013-02-12 03:11:00,46.0,11.0,-100.00,South,178,2.0,6.0,24,0.00,,,0.00,0.000000,,2013-02-12 11:11:00,
2013-02-12 03:21:00,46.0,11.0,-100.00,South,178,2.0,6.0,24,0.00,,,0.00,0.000000,,2013-02-12 11:21:00,
2013-02-12 03:31:00,46.0,11.0,-100.00,South,178,2.0,6.0,24,0.00,,,0.00,0.000000,,2013-02-12 11:31:00,
2013-02-12 03:41:00,46.0,11.0,-100.00,South,178,2.0,6.0,24,0.00,,,0.00,0.000000,,2013-02-12 11:41:00,
2013-02-12 03:52:00,44.0,9.0,-100.00,WSW,239,0.0,7.0,23,0.00,,,0.00,0.000000,,2013-02-12 11:52:00,
2013-02-12 04:11:00,44.0,9.0,-100.00,WSW,239,0.0,7.0,23,0.00,,,0.00,0.000000,,2013-02-12 12:11:00,
2013-02-12 04:21:00,44.0,9.0,-100.00,WSW,239,0.0,7.0,23,0.00,,,0.00,0.000000,,2013-02-12 12:21:00,
2013-02-12 04:32:00,44.0,9.0,-100.00,WSW,239,0.0,7.0,23,0.00,,,0.00,0.000000,,2013-02-12 12:32:00,
2013-02-12 04:42:00,44.0,9.0,-100.00,WSW,239,0.0,7.0,23,0.00,,,0.00,0.000000,,2013-02-12 12:42:00,
2013-02-12 05:11:00,47.0,9.0,-100.00,WSW,256,3.0,6.0,21,0.00,,,-99.99,0.000000,,2013-02-12 13:11:00,
2013-02-12 05:22:00,47.0,9.0,-100.00,WSW,256,3.0,6.0,21,0.00,,,-99.99,0.000000,,2013-02-12 13:22:00,
2013-02-12 05:31:00,47.0,9.0,-100.00,WSW,256,3.0,6.0,21,0.00,,,-99.99,0.000000,,2013-02-12 13:31:00,
2013-02-12 05:42:00,47.0,9.0,-100.00,WSW,256,3.0,6.0,21,0.00,,,-99.99,0.000000,,2013-02-12 13:42:00,
2013-02-12 05:51:00,47.0,9.0,-100.00,WSW,256,3.0,6.0,21,0.00,,,-99.99,0.000000,,2013-02-12 13:51:00,
2013-02-12 05:52:00,45.0,10.0,-100.00,NW,314,0.0,6.0,24,0.00,,,0.00,0.000000,,2013-02-12 13:52:00,
2013-02-12 06:11:00,45.0,10.0,-100.00,NW,314,0.0,6.0,24,0.00,,,0.00,0.000000,,2013-02-12 14:11:00,
2013-02-12 06:21:00,45.0,10.0,-100.00,NW,314,0.0,6.0,24,0.00,,,0.00,0.000000,,2013-02-12 14:21:00,
2013-02-12 06:31:00,45.0,10.0,-100.00,NW,314,0.0,6.0,24,0.00,,,0.00,0.000000,,2013-02-12 14:31:00,
2013-02-12 06:41:00,45.0,10.0,-100.00,NW,314,0.0,6.0,24,0.00,,,0.00,0.000000,,2013-02-12 14:41:00,
2013-02-12 06:52:00,43.0,10.0,-100.00,South,186,0.0,4.0,26,0.00,,,0.00,5.000000,,2013-02-12 14:52:00,
2013-02-12 07:11:00,43.0,10.0,-100.00,South,186,0.0,4.0,26,0.00,,,0.00,5.000000,,2013-02-12 15:11:00,
2013-02-12 07:21:00,43.0,10.0,-100.00,South,186,0.0,4.0,26,0.00,,,0.00,5.000000,,2013-02-12 15:21:00,
2013-02-12 07:32:00,43.0,10.0,-100.00,South,186,0.0,4.0,26,0.00,,,0.00,5.000000,,2013-02-12 15:32:00,
2013-02-12 07:41:00,43.0,10.0,-100.00,South,186,0.0,4.0,26,0.00,,,0.00,5.000000,,2013-02-12 15:41:00,
2013-02-12 08:22:00,53.0,15.0,-100.00,South,188,0.0,4.0,22,0.00,,,0.00,162.000000,,2013-02-12 16:22:00,
2013-02-12 08:41:00,53.0,15.0,-100.00,South,188,0.0,4.0,22,0.00,,,0.00,162.000000,,2013-02-12 16:41:00,
2013-02-12 08:51:00,53.0,15.0,-100.00,South,188,0.0,4.0,22,0.00,,,0.00,162.000000,,2013-02-12 16:51:00,
2013-02-12 08:52:00,58.0,21.0,-100.00,WSW,243,0.0,7.0,24,0.00,,,0.00,409.000000,,2013-02-12 16:52:00,
2013-02-12 09:11:00,58.0,21.0,-100.00,WSW,243,0.0,7.0,24,0.00,,,0.00,409.000000,,2013-02-12 17:11:00,
2013-02-12 09:41:00,58.0,21.0,-100.00,WSW,243,0.0,7.0,24,0.00,,,0.00,409.000000,,2013-02-12 17:41:00,
2013-02-12 10:11:00,64.0,17.0,-100.00,ESE,120,0.0,5.0,16,0.00,,,0.00,624.000000,,2013-02-12 18:11:00,
2013-02-12 10:22:00,64.0,17.0,-100.00,ESE,120,0.0,5.0,16,0.00,,,0.00,624.000000,,2013-02-12 18:22:00,
2013-02-12 10:31:00,64.0,17.0,-100.00,ESE,120,0.0,5.0,16,0.00,,,0.00,624.000000,,2013-02-12 18:31:00,
2013-02-12 10:41:00,64.0,17.0,-100.00,ESE,120,0.0,5.0,16,0.00,,,0.00,624.000000,,2013-02-12 18:41:00,
2013-02-12 10:51:00,64.0,17.0,-100.00,ESE,120,0.0,5.0,16,0.00,,,0.00,624.000000,,2013-02-12 18:51:00,
2013-02-12 11:11:00,67.0,13.0,-100.00,NNE,26,0.0,6.0,12,0.00,,,-99.99,783.000000,,2013-02-12 19:11:00,
2013-02-12 11:21:00,67.0,13.0,-100.00,NNE,26,0.0,6.0,12,0.00,,,-99.99,783.000000,,2013-02-12 19:21:00,
2013-02-12 11:31:00,67.0,13.0,-100.00,NNE,26,0.0,6.0,12,0.00,,,-99.99,783.000000,,2013-02-12 19:31:00,
2013-02-12 11:41:00,67.0,13.0,-100.00,NNE,26,0.0,6.0,12,0.00,,,-99.99,783.000000,,2013-02-12 19:41:00,
2013-02-12 11:51:00,67.0,13.0,-100.00,NNE,26,0.0,6.0,12,0.00,,,-99.99,783.000000,,2013-02-12 19:51:00,
2013-02-12 12:11:00,66.0,12.0,-100.00,East,99,4.0,9.0,12,0.00,,,0.00,874.000000,,2013-02-12 20:11:00,
2013-02-12 12:21:00,66.0,12.0,-100.00,East,99,4.0,9.0,12,0.00,,,0.00,874.000000,,2013-02-12 20:21:00,
2013-02-12 12:31:00,66.0,12.0,-100.00,East,99,4.0,9.0,12,0.00,,,0.00,874.000000,,2013-02-12 20:31:00,
2013-02-12 12:41:00,66.0,12.0,-100.00,East,99,4.0,9.0,12,0.00,,,0.00,874.000000,,2013-02-12 20:41:00,
2013-02-12 12:51:00,66.0,12.0,-100.00,East,99,4.0,9.0,12,0.00,,,0.00,874.000000,,2013-02-12 20:51:00,
2013-02-12 13:21:00,69.0,8.0,-100.00,SSW,206,2.0,10.0,9,0.00,,,0.00,883.000000,,2013-02-12 21:21:00,
2013-02-12 13:31:00,69.0,8.0,-100.00,SSW,206,2.0,10.0,9,0.00,,,0.00,883.000000,,2013-02-12 21:31:00,
2013-02-12 13:41:00,69.0,8.0,-100.00,SSW,206,2.0,10.0,9,0.00,,,0.00,883.000000,,2013-02-12 21:41:00,
2013-02-12 13:51:00,69.0,8.0,-100.00,SSW,206,2.0,10.0,9,0.00,,,0.00,883.000000,,2013-02-12 21:51:00,
2013-02-12 14:21:00,69.0,8.0,-100.00,North,7,2.0,10.0,9,0.00,,,-99.99,815.000000,,2013-02-12 22:21:00,
2013-02-12 14:31:00,69.0,8.0,-100.00,North,7,2.0,10.0,9,0.00,,,-99.99,815.000000,,2013-02-12 22:31:00,
2013-02-12 14:41:00,69.0,8.0,-100.00,North,7,2.0,10.0,9,0.00,,,-99.99,815.000000,,2013-02-12 22:41:00,
2013-02-12 14:51:00,69.0,8.0,-100.00,North,7,2.0,10.0,9,0.00,,,-99.99,815.000000,,2013-02-12 22:51:00,
2013-02-12 14:52:00,70.0,9.0,-100.00,SSW,202,2.0,9.0,9,0.00,,,0.00,676.000000,,2013-02-12 22:52:00,
2013-02-12 15:11:00,70.0,9.0,-100.00,SSW,202,2.0,9.0,9,0.00,,,0.00,676.000000,,2013-02-12 23:11:00,
2013-02-12 15:21:00,70.0,9.0,-100.00,SSW,202,2.0,9.0,9,0.00,,,0.00,676.000000,,2013-02-12 23:21:00,
2013-02-12 15:31:00,70.0,9.0,-100.00,SSW,202,2.0,9.0,9,0.00,,,0.00,676.000000,,2013-02-12 23:31:00,
2013-02-12 15:41:00,70.0,9.0,-100.00,SSW,202,2.0,9.0,9,0.00,,,0.00,676.000000,,2013-02-12 23:41:00,
2013-02-12 16:21:00,69.0,8.0,-100.00,East,94,0.0,6.0,9,0.00,,,0.00,472.000000,,2013-02-13 00:21:00,
2013-02-12 16:32:00,69.0,8.0,-100.00,East,94,0.0,6.0,9,0.00,,,0.00,472.000000,,2013-02-13 00:32:00,
2013-02-12 16:42:00,69.0,8.0,-100.00,East,94,0.0,6.0,9,0.00,,,0.00,472.000000,,2013-02-13 00:42:00,
2013-02-12 16:51:00,69.0,8.0,-100.00,East,94,0.0,6.0,9,0.00,,,0.00,472.000000,,2013-02-13 00:51:00,
2013-02-12 17:42:00,64.0,10.0,-100.00,South,186,0.0,4.0,12,0.00,,,0.00,140.000000,,2013-02-13 01:42:00,
2013-02-12 17:51:00,64.0,10.0,-100.00,South,186,0.0,4.0,12,0.00,,,0.00,140.000000,,2013-02-13 01:51:00,
2013-02-12 17:52:00,61.0,10.0,-100.00,SW,231,5.0,13.0,13,0.00,,,0.00,10.000000,,2013-02-13 01:52:00,
2013-02-12 18:21:00,61.0,10.0,-100.00,SW,231,5.0,13.0,13,0.00,,,0.00,10.000000,,2013-02-13 02:21:00,
2013-02-12 18:31:00,61.0,10.0,-100.00,SW,231,5.0,13.0,13,0.00,,,0.00,10.000000,,2013-02-13 02:31:00,
2013-02-12 18:41:00,61.0,10.0,-100.00,SW,231,5.0,13.0,13,0.00,,,0.00,10.000000,,2013-02-13 02:41:00,
2013-02-12 19:11:00,58.0,11.0,-100.00,NW,307,2.0,8.0,15,0.00,,,0.00,0.000000,,2013-02-13 03:11:00,
2013-02-12 19:21:00,58.0,11.0,-100.00,NW,307,2.0,8.0,15,0.00,,,0.00,0.000000,,2013-02-13 03:21:00,
2013-02-12 19:32:00,58.0,11.0,-100.00,NW,307,2.0,8.0,15,0.00,,,0.00,0.000000,,2013-02-13 03:32:00,
2013-02-12 19:41:00,58.0,11.0,-100.00,NW,307,2.0,8.0,15,0.00,,,0.00,0.000000,,2013-02-13 03:41:00,
2013-02-12 19:51:00,58.0,11.0,-100.00,NW,307,2.0,8.0,15,0.00,,,0.00,0.000000,,2013-02-13 03:51:00,
2013-02-12 20:11:00,58.0,11.0,-100.00,South,180,2.0,7.0,15,0.00,,,0.00,0.000000,,2013-02-13 04:11:00,
2013-02-12 20:21:00,58.0,11.0,-100.00,South,180,2.0,7.0,15,0.00,,,0.00,0.000000,,2013-02-13 04:21:00,
2013-02-12 20:31:00,58.0,11.0,-100.00,South,180,2.0,7.0,15,0.00,,,0.00,0.000000,,2013-02-13 04:31:00,
2013-02-12 20:41:00,58.0,11.0,-100.00,South,180,2.0,7.0,15,0.00,,,0.00,0.000000,,2013-02-13 04:41:00,
2013-02-12 20:51:00,58.0,11.0,-100.00,South,180,2.0,7.0,15,0.00,,,0.00,0.000000,,2013-02-13 04:51:00,
2013-02-12 21:11:00,55.0,12.0,-100.00,NNW,338,2.0,7.0,18,0.00,,,0.00,0.000000,,2013-02-13 05:11:00,
2013-02-12 21:22:00,55.0,12.0,-100.00,NNW,338,2.0,7.0,18,0.00,,,0.00,0.000000,,2013-02-13 05:22:00,
2013-02-12 21:31:00,55.0,12.0,-100.00,NNW,338,2.0,7.0,18,0.00,,,0.00,0.000000,,2013-02-13 05:31:00,
2013-02-12 21:41:00,55.0,12.0,-100.00,NNW,338,2.0,7.0,18,0.00,,,0.00,0.000000,,2013-02-13 05:41:00,
2013-02-12 21:51:00,55.0,12.0,-100.00,NNW,338,2.0,7.0,18,0.00,,,0.00,0.000000,,2013-02-13 05:51:00,
2013-02-12 22:11:00,52.0,20.0,-100.00,WNW,292,0.0,5.0,28,0.00,,,0.00,0.000000,,2013-02-13 06:11:00,
2013-02-12 22:21:00,52.0,20.0,-100.00,WNW,292,0.0,5.0,28,0.00,,,0.00,0.000000,,2013-02-13 06:21:00,
2013-02-12 22:31:00,52.0,20.0,-100.00,WNW,292,0.0,5.0,28,0.00,,,0.00,0.000000,,2013-02-13 06:31:00,
2013-02-12 22:41:00,52.0,20.0,-100.00,WNW,292,0.0,5.0,28,0.00,,,0.00,0.000000,,2013-02-13 06:41:00,
2013-02-12 22:51:00,52.0,20.0,-100.00,WNW,292,0.0,5.0,28,0.00,,,0.00,0.000000,,2013-02-13 06:51:00,
2013-02-12 23:21:00,53.0,20.0,-100.00,WSW,249,3.0,5.0,27,0.00,,,0.00,0.000000,,2013-02-13 07:21:00,
2013-02-12 23:31:00,53.0,20.0,-100.00,WSW,249,3.0,5.0,27,0.00,,,0.00,0.000000,,2013-02-13 07:31:00,
2013-02-12 23:41:00,53.0,20.0,-100.00,WSW,249,3.0,5.0,27,0.00,,,0.00,0.000000,,2013-02-13 07:41:00,
2013-02-12 23:51:00,53.0,20.0,-100.00,WSW,249,3.0,5.0,27,0.00,,,0.00,0.000000,,2013-02-13 07:51:00,